Location: Arrington
(35.8681°N, 86.7092°W)
Time: 18:23:20
(UTC+00:00)

ATLAS 3B R/B - Pass Details

Date: 23 November 2019
Orbit: 1030 x 1165 km, 63.8° (Epoch: 02 December)

Event Time Altitude Azimuth Distance (km) Brightness Sun altitude
Rises 00:30:50 0° 340° (NNW) 3,794 5.7 -23.1°
Reaches altitude 10° 00:34:38 10° 1° (N) 2,851 4.8 -23.9°
Enters shadow 00:36:24 14° 16° (NNE) 2,567 4.5 -24.2°
